"Period start","avg(HW err(1)/warn(2) (#))","avg(Visibility (m))","avg(Weather code (#))","avg(Precip intensity (mm/h))","min(HW err(1)/warn(2) (#))","max(HW err(1)/warn(2) (#))","std(HW err(1)/warn(2) (#))","med(HW err(1)/warn(2) (#))","min(Visibility (m))","max(Visibility (m))","std(Visibility (m))","med(Visibility (m))","min(Weather code (#))","max(Weather code (#))","std(Weather code (#))","med(Weather code (#))","min(Precip intensity (mm/h))","max(Precip intensity (mm/h))","std(Precip intensity (mm/h))","med(Precip intensity (mm/h))"
2013-10-24 00:00:00,2,46683,0,0.00,2,2,0,2,42146,50000,2960,46882,0,0,0,0,0.00,0.00,0.00,0.00
2013-10-24 00:10:00,2,45948,0,0.00,2,2,0,2,38319,50000,4192,46950,0,0,0,0,0.00,0.00,0.00,0.00
2013-10-24 00:20:00,2,40804,0,0.00,2,2,0,2,37109,46818,2844,40468,0,0,0,0,0.00,0.00,0.00,0.00
2013-10-24 00:30:00,2,46304,0,0.00,2,2,0,2,40132,50000,3134,45921,0,0,0,0,0.00,0.00,0.00,0.00
2013-10-24 00:40:00,2,47042,0,0.00,2,2,0,2,41848,50000,3084,47993,0,0,0,0,0.00,0.00,0.00,0.00
2013-10-24 00:50:00,2,42481,0,0.00,2,2,0,2,36767,49559,5138,40050,0,0,0,0,0.00,0.00,0.00,0.00
2013-10-24 01:00:00,2,45747,0,0.00,2,2,0,2,38620,50000,3757,46952,0,0,0,0,0.00,0.00,0.00,0.00
2013-10-24 01:10:00,2,44991,0,0.00,2,2,0,2,39115,50000,3512,45329,0,0,0,0,0.00,0.00,0.00,0.00
2013-10-24 01:20:00,2,45509,0,0.00,2,2,0,2,38010,50000,3667,45154,0,0,0,0,0.00,0.00,0.00,0.00
2013-10-24 01:30:00,2,42691,0,0.00,2,2,0,2,34426,50000,5625,43302,0,0,0,0,0.00,0.00,0.00,0.00
2013-10-24 01:40:00,2,42254,0,0.00,2,2,0,2,28987,50000,6826,41297,0,0,0,0,0.00,0.00,0.00,0.00
2013-10-24 01:50:00,2,43810,0,0.00,2,2,0,2,32380,50000,5667,45654,0,0,0,0,0.00,0.00,0.00,0.00
2013-10-24 02:00:00,2,41392,0,0.00,2,2,0,2,36593,45974,3227,41776,0,0,0,0,0.00,0.00,0.00,0.00
2013-10-24 02:10:00,2,39242,0,0.00,2,2,0,2,29409,50000,6437,39568,0,0,0,0,0.00,0.00,0.00,0.00
2013-10-24 02:20:00,2,41031,0,0.00,2,2,0,2,31311,50000,6351,40870,0,0,0,0,0.00,0.00,0.00,0.00
2013-10-24 02:30:00,2,40451,0,0.00,2,2,0,2,35570,48547,4077,40286,0,0,0,0,0.00,0.00,0.00,0.00
2013-10-24 02:40:00,2,40039,0,0.00,2,2,0,2,35384,44843,2898,39776,0,0,0,0,0.00,0.00,0.00,0.00
2013-10-24 02:50:00,2,44541,0,0.00,2,2,0,2,39209,50000,3382,43072,0,0,0,0,0.00,0.00,0.00,0.00
2013-10-24 03:00:00,2,47020,0,0.00,2,2,0,2,39017,50000,3212,47158,0,0,0,0,0.00,0.00,0.00,0.00
2013-10-24 03:10:00,2,44046,0,0.00,2,2,0,2,31570,50000,5579,46337,0,0,0,0,0.00,0.00,0.00,0.00
2013-10-24 03:20:00,2,49714,0,0.00,2,2,0,2,48167,50000,600,50000,0,0,0,0,0.00,0.00,0.00,0.00
2013-10-24 03:30:00,2,46592,0,0.00,2,2,0,2,40947,50000,3496,47258,0,0,0,0,0.00,0.00,0.00,0.00
2013-10-24 03:40:00,2,49314,0,0.00,2,2,0,2,45566,50000,1283,49748,0,0,0,0,0.00,0.00,0.00,0.00
2013-10-24 03:50:00,2,49193,0,0.00,2,2,0,2,45265,50000,1458,50000,0,0,0,0,0.00,0.00,0.00,0.00
2013-10-24 04:00:00,2,48891,0,0.00,2,2,0,2,45280,50000,1742,50000,0,0,0,0,0.00,0.00,0.00,0.00
2013-10-24 04:10:00,2,48769,0,0.00,2,2,0,2,44645,50000,2004,50000,0,0,0,0,0.00,0.00,0.00,0.00
2013-10-24 04:20:00,2,49062,0,0.00,2,2,0,2,43441,50000,1955,50000,0,0,0,0,0.00,0.00,0.00,0.00
2013-10-24 04:30:00,2,49688,0,0.00,2,2,0,2,47661,50000,714,50000,0,0,0,0,0.00,0.00,0.00,0.00
2013-10-24 04:40:00,2,47205,0,0.00,2,2,0,2,35824,50000,4668,50000,0,0,0,0,0.00,0.00,0.00,0.00
2013-10-24 04:50:00,2,49841,0,0.00,2,2,0,2,48868,50000,352,50000,0,0,0,0,0.00,0.00,0.00,0.00
2013-10-24 05:00:00,2,48664,0,0.00,2,2,0,2,45395,50000,1485,48991,0,0,0,0,0.00,0.00,0.00,0.00
2013-10-24 05:10:00,2,49144,0,0.00,2,2,0,2,47586,50000,789,49292,0,0,0,0,0.00,0.00,0.00,0.00
2013-10-24 05:20:00,2,49416,0,0.00,2,2,0,2,46978,50000,1170,50000,0,0,0,0,0.00,0.00,0.00,0.00
2013-10-24 05:30:00,2,49246,0,0.00,2,2,0,2,47701,50000,904,49817,0,0,0,0,0.00,0.00,0.00,0.00
2013-10-24 05:40:00,2,49718,0,0.00,2,2,0,2,48314,50000,534,50000,0,0,0,0,0.00,0.00,0.00,0.00
2013-10-24 05:50:00,2,48844,0,0.00,2,2,0,2,44150,50000,2021,49963,0,0,0,0,0.00,0.00,0.00,0.00
2013-10-24 06:00:00,2,47580,0,0.00,2,2,0,2,40924,50000,3340,49995,0,0,0,0,0.00,0.00,0.00,0.00
2013-10-24 06:10:00,2,49469,0,0.00,2,2,0,2,47136,50000,923,50000,0,0,0,0,0.00,0.00,0.00,0.00
2013-10-24 06:20:00,2,49362,0,0.00,2,2,0,2,47681,50000,786,49840,0,0,0,0,0.00,0.00,0.00,0.00
2013-10-24 06:30:00,2,50000,0,0.00,2,2,0,2,50000,50000,0,50000,0,0,0,0,0.00,0.00,0.00,0.00
2013-10-24 06:40:00,2,49692,0,0.00,2,2,0,2,47245,50000,819,50000,0,0,0,0,0.00,0.00,0.00,0.00
2013-10-24 06:50:00,2,48795,0,0.00,2,2,0,2,44631,50000,1741,50000,0,0,0,0,0.00,0.00,0.00,0.00
2013-10-24 07:00:00,2,47621,0,0.00,2,2,0,2,39144,50000,3856,49958,0,0,0,0,0.00,0.00,0.00,0.00
2013-10-24 07:10:00,2,48812,0,0.00,2,2,0,2,45060,50000,1454,49322,0,0,0,0,0.00,0.00,0.00,0.00
2013-10-24 07:20:00,2,46623,0,0.00,2,2,0,2,29739,50000,6177,50000,0,0,0,0,0.00,0.00,0.00,0.00
2013-10-24 07:30:00,2,33740,46,0.01,2,2,0,2,29001,37022,2680,33636,0,77,27,40,0.00,0.05,0.02,0.00
2013-10-24 07:40:00,2,26343,73,0.00,2,2,0,2,19321,39043,6374,23998,71,77,3,71,0.00,0.00,0.00,0.00
2013-10-24 07:50:00,2,22329,75,0.00,2,2,0,2,19084,26513,2260,22542,71,77,3,77,0.00,0.00,0.00,0.00
2013-10-24 08:00:00,2,8546,72,0.49,2,2,0,2,5297,12550,1896,8709,71,77,2,71,0.05,2.25,0.61,0.30
2013-10-24 08:10:00,2,10554,71,0.16,2,2,0,2,8450,12578,1261,10706,71,71,0,71,0.05,0.50,0.16,0.10
2013-10-24 08:20:00,2,11698,72,0.16,2,2,0,2,9002,14559,1896,11691,71,77,2,71,0.05,0.50,0.16,0.08
2013-10-24 08:30:00,2,10825,72,0.20,2,2,0,2,7212,13317,2099,10687,71,77,2,71,0.00,0.75,0.22,0.12
2013-10-24 08:40:00,2,12175,76,0.15,2,2,0,2,8070,16533,2867,11692,71,77,2,77,0.00,0.65,0.22,0.05
2013-10-24 08:50:00,2,14007,71,0.15,2,2,0,2,7270,21456,4758,13099,71,71,0,71,0.00,0.50,0.17,0.10
2013-10-24 09:00:00,2,23801,78,0.01,2,2,0,2,18942,28524,3157,24394,77,78,0,78,0.00,0.05,0.02,0.00
2013-10-24 09:10:00,2,26406,78,0.01,2,2,0,2,21753,32807,3715,25186,78,78,0,78,0.00,0.05,0.02,0.00
2013-10-24 09:20:00,2,30484,78,0.00,2,2,0,2,24977,35000,2886,30560,78,78,0,78,0.00,0.00,0.00,0.00
2013-10-24 09:30:00,2,33275,62,0.00,2,2,0,2,27073,37715,3311,33714,0,78,31,78,0.00,0.00,0.00,0.00
2013-10-24 09:40:00,2,19622,0,0.00,2,2,0,2,17162,24574,2439,18255,0,0,0,0,0.00,0.00,0.00,0.00
2013-10-24 09:50:00,2,39946,0,0.00,2,2,0,2,28741,47884,6703,41838,0,0,0,0,0.00,0.00,0.00,0.00
2013-10-24 10:00:00,2,47471,0,0.00,2,2,0,2,40294,50000,3110,49360,0,0,0,0,0.00,0.00,0.00,0.00
2013-10-24 10:10:00,2,48888,0,0.00,2,2,0,2,45658,50000,1591,50000,0,0,0,0,0.00,0.00,0.00,0.00
2013-10-24 10:20:00,2,49939,0,0.00,2,2,0,2,49387,50000,184,50000,0,0,0,0,0.00,0.00,0.00,0.00
2013-10-24 10:30:00,2,49556,0,0.00,2,2,0,2,46084,50000,1168,50000,0,0,0,0,0.00,0.00,0.00,0.00
2013-10-24 10:40:00,2,49930,0,0.00,2,2,0,2,49304,50000,209,50000,0,0,0,0,0.00,0.00,0.00,0.00
2013-10-24 10:50:00,2,49482,0,0.00,2,2,0,2,46368,50000,1120,50000,0,0,0,0,0.00,0.00,0.00,0.00
2013-10-24 11:00:00,2,49655,0,0.00,2,2,0,2,48462,50000,551,50000,0,0,0,0,0.00,0.00,0.00,0.00
2013-10-24 11:10:00,2,49550,0,0.00,2,2,0,2,48439,50000,672,50000,0,0,0,0,0.00,0.00,0.00,0.00
2013-10-24 11:20:00,2,48414,0,0.00,2,2,0,2,41258,50000,2839,50000,0,0,0,0,0.00,0.00,0.00,0.00
2013-10-24 11:30:00,2,44776,0,0.00,2,2,0,2,30557,50000,6179,47394,0,0,0,0,0.00,0.00,0.00,0.00
2013-10-24 11:40:00,2,34273,0,0.00,2,2,0,2,23824,48112,8041,33821,0,0,0,0,0.00,0.00,0.00,0.00
2013-10-24 11:50:00,2,29036,0,0.00,2,2,0,2,18697,45490,7847,27424,0,0,0,0,0.00,0.00,0.00,0.00
2013-10-24 12:00:00,2,48294,0,0.00,2,2,0,2,41234,50000,3294,50000,0,0,0,0,0.00,0.00,0.00,0.00
2013-10-24 12:10:00,2,49902,0,0.00,2,2,0,2,49023,50000,293,50000,0,0,0,0,0.00,0.00,0.00,0.00
2013-10-24 12:20:00,2,50000,0,0.00,2,2,0,2,50000,50000,0,50000,0,0,0,0,0.00,0.00,0.00,0.00
2013-10-24 12:30:00,2,49571,0,0.00,2,2,0,2,47073,50000,863,50000,0,0,0,0,0.00,0.00,0.00,0.00
2013-10-24 12:40:00,2,50000,0,0.00,2,2,0,2,50000,50000,0,50000,0,0,0,0,0.00,0.00,0.00,0.00
2013-10-24 12:50:00,2,49359,0,0.00,2,2,0,2,45961,50000,1335,50000,0,0,0,0,0.00,0.00,0.00,0.00
2013-10-24 13:00:00,2,49545,0,0.00,2,2,0,2,46745,50000,993,50000,0,0,0,0,0.00,0.00,0.00,0.00
2013-10-24 13:10:00,2,49843,0,0.00,2,2,0,2,48814,50000,361,50000,0,0,0,0,0.00,0.00,0.00,0.00
2013-10-24 13:20:00,2,50000,0,0.00,2,2,0,2,50000,50000,0,50000,0,0,0,0,0.00,0.00,0.00,0.00
2013-10-24 13:30:00,2,50000,0,0.00,2,2,0,2,50000,50000,0,50000,0,0,0,0,0.00,0.00,0.00,0.00
2013-10-24 13:40:00,2,49925,0,0.00,2,2,0,2,49253,50000,224,50000,0,0,0,0,0.00,0.00,0.00,0.00
2013-10-24 13:50:00,2,50000,0,0.00,2,2,0,2,50000,50000,0,50000,0,0,0,0,0.00,0.00,0.00,0.00
2013-10-24 14:00:00,2,50000,0,0.00,2,2,0,2,50000,50000,0,50000,0,0,0,0,0.00,0.00,0.00,0.00
2013-10-24 14:10:00,2,49467,0,0.00,2,2,0,2,47262,50000,1066,50000,0,0,0,0,0.00,0.00,0.00,0.00
2013-10-24 14:20:00,2,50000,0,0.00,2,2,0,2,50000,50000,0,50000,0,0,0,0,0.00,0.00,0.00,0.00
2013-10-24 14:30:00,2,49870,0,0.00,2,2,0,2,48703,50000,389,50000,0,0,0,0,0.00,0.00,0.00,0.00
2013-10-24 14:40:00,2,50000,0,0.00,2,2,0,2,50000,50000,0,50000,0,0,0,0,0.00,0.00,0.00,0.00
2013-10-24 14:50:00,2,49508,0,0.00,2,2,0,2,47198,50000,881,50000,0,0,0,0,0.00,0.00,0.00,0.00
2013-10-24 15:00:00,2,50000,0,0.00,2,2,0,2,50000,50000,0,50000,0,0,0,0,0.00,0.00,0.00,0.00
2013-10-24 15:10:00,2,50000,0,0.00,2,2,0,2,50000,50000,0,50000,0,0,0,0,0.00,0.00,0.00,0.00
2013-10-24 15:20:00,2,49122,0,0.00,2,2,0,2,41216,50000,2635,50000,0,0,0,0,0.00,0.00,0.00,0.00
2013-10-24 15:30:00,2,31011,0,0.00,2,2,0,2,14368,44428,10358,30915,0,0,0,0,0.00,0.00,0.00,0.00
2013-10-24 15:40:00,2,19905,0,0.00,2,2,0,2,16380,25388,2606,19049,0,0,0,0,0.00,0.00,0.00,0.00
2013-10-24 15:50:00,2,31532,0,0.00,2,2,0,2,22793,41031,5911,29157,0,0,0,0,0.00,0.00,0.00,0.00
2013-10-24 16:00:00,2,49110,0,0.00,2,2,0,2,43653,50000,1972,50000,0,0,0,0,0.00,0.00,0.00,0.00
2013-10-24 16:10:00,2,49439,0,0.00,2,2,0,2,44864,50000,1532,50000,0,0,0,0,0.00,0.00,0.00,0.00
2013-10-24 16:20:00,2,42039,0,0.00,2,2,0,2,33919,50000,4609,42739,0,0,0,0,0.00,0.00,0.00,0.00
2013-10-24 16:30:00,2,47394,0,0.00,2,2,0,2,40992,50000,3255,49785,0,0,0,0,0.00,0.00,0.00,0.00
2013-10-24 16:40:00,2,50000,0,0.00,2,2,0,2,50000,50000,0,50000,0,0,0,0,0.00,0.00,0.00,0.00
2013-10-24 16:50:00,2,47087,0,0.00,2,2,0,2,38834,50000,3345,47654,0,0,0,0,0.00,0.00,0.00,0.00
2013-10-24 17:00:00,2,49006,0,0.00,2,2,0,2,44231,50000,1722,50000,0,0,0,0,0.00,0.00,0.00,0.00
2013-10-24 17:10:00,2,39496,0,0.00,2,2,0,2,25385,50000,9501,38874,0,0,0,0,0.00,0.00,0.00,0.00
2013-10-24 17:20:00,2,47977,0,0.00,2,2,0,2,43076,50000,2541,49492,0,0,0,0,0.00,0.00,0.00,0.00
2013-10-24 17:30:00,2,45345,0,0.00,2,2,0,2,39165,49836,3577,45292,0,0,0,0,0.00,0.00,0.00,0.00
2013-10-24 17:40:00,2,37184,0,0.00,2,2,0,2,21576,50000,8122,35554,0,0,0,0,0.00,0.00,0.00,0.00
2013-10-24 17:50:00,2,20971,0,0.00,2,2,0,2,18864,23224,1624,21018,0,0,0,0,0.00,0.00,0.00,0.00
2013-10-24 18:00:00,2,43211,0,0.00,2,2,0,2,29750,50000,7858,46563,0,0,0,0,0.00,0.00,0.00,0.00
2013-10-24 18:10:00,2,50000,0,0.00,2,2,0,2,50000,50000,0,50000,0,0,0,0,0.00,0.00,0.00,0.00
2013-10-24 18:20:00,2,48996,0,0.00,2,2,0,2,44448,50000,1672,50000,0,0,0,0,0.00,0.00,0.00,0.00
2013-10-24 18:30:00,2,49578,0,0.00,2,2,0,2,47839,50000,845,50000,0,0,0,0,0.00,0.00,0.00,0.00
2013-10-24 18:40:00,2,49680,0,0.00,2,2,0,2,47912,50000,677,50000,0,0,0,0,0.00,0.00,0.00,0.00
2013-10-24 18:50:00,2,50000,0,0.00,2,2,0,2,50000,50000,0,50000,0,0,0,0,0.00,0.00,0.00,0.00
2013-10-24 19:00:00,2,50000,0,0.00,2,2,0,2,50000,50000,0,50000,0,0,0,0,0.00,0.00,0.00,0.00
2013-10-24 19:10:00,2,50000,0,0.00,2,2,0,2,50000,50000,0,50000,0,0,0,0,0.00,0.00,0.00,0.00
2013-10-24 19:20:00,2,49827,0,0.00,2,2,0,2,48266,50000,520,50000,0,0,0,0,0.00,0.00,0.00,0.00
2013-10-24 19:30:00,2,49300,0,0.00,2,2,0,2,46760,50000,1075,50000,0,0,0,0,0.00,0.00,0.00,0.00
2013-10-24 19:40:00,2,50000,0,0.00,2,2,0,2,50000,50000,0,50000,0,0,0,0,0.00,0.00,0.00,0.00
2013-10-24 19:50:00,2,49972,0,0.00,2,2,0,2,49723,50000,83,50000,0,0,0,0,0.00,0.00,0.00,0.00
2013-10-24 20:00:00,2,49899,0,0.00,2,2,0,2,48991,50000,303,50000,0,0,0,0,0.00,0.00,0.00,0.00
2013-10-24 20:10:00,2,49593,0,0.00,2,2,0,2,47830,50000,816,50000,0,0,0,0,0.00,0.00,0.00,0.00
2013-10-24 20:20:00,2,49858,0,0.00,2,2,0,2,48582,50000,425,50000,0,0,0,0,0.00,0.00,0.00,0.00
2013-10-24 20:30:00,2,50000,0,0.00,2,2,0,2,50000,50000,0,50000,0,0,0,0,0.00,0.00,0.00,0.00
2013-10-24 20:40:00,2,49989,0,0.00,2,2,0,2,49893,50000,32,50000,0,0,0,0,0.00,0.00,0.00,0.00
2013-10-24 20:50:00,2,49532,0,0.00,2,2,0,2,47455,50000,940,50000,0,0,0,0,0.00,0.00,0.00,0.00
2013-10-24 21:00:00,2,22921,51,0.17,2,2,0,2,6813,50000,16314,15564,0,77,33,71,0.00,1.10,0.32,0.03
2013-10-24 21:10:00,2,5867,71,0.80,2,2,0,2,4159,8693,1229,5540,71,71,0,71,0.15,1.85,0.52,0.73
2013-10-24 21:20:00,2,9457,71,0.41,2,2,0,2,4257,16765,3646,9400,71,71,0,71,0.00,1.40,0.47,0.15
2013-10-24 21:30:00,2,38335,43,0.02,2,2,0,2,20355,50000,12178,43637,0,71,35,71,0.00,0.10,0.03,0.00
2013-10-24 21:40:00,2,50000,0,0.00,2,2,0,2,50000,50000,0,50000,0,0,0,0,0.00,0.00,0.00,0.00
2013-10-24 21:50:00,2,50000,0,0.00,2,2,0,2,50000,50000,0,50000,0,0,0,0,0.00,0.00,0.00,0.00
2013-10-24 22:00:00,2,49160,0,0.00,2,2,0,2,43437,50000,1985,50000,0,0,0,0,0.00,0.00,0.00,0.00
2013-10-24 22:10:00,2,49832,0,0.00,2,2,0,2,48322,50000,503,50000,0,0,0,0,0.00,0.00,0.00,0.00
2013-10-24 22:20:00,2,50000,0,0.00,2,2,0,2,50000,50000,0,50000,0,0,0,0,0.00,0.00,0.00,0.00
2013-10-24 22:30:00,2,49582,0,0.00,2,2,0,2,46634,50000,1009,50000,0,0,0,0,0.00,0.00,0.00,0.00
2013-10-24 22:40:00,2,49158,0,0.00,2,2,0,2,45408,50000,1692,50000,0,0,0,0,0.00,0.00,0.00,0.00
2013-10-24 22:50:00,2,49799,0,0.00,2,2,0,2,48124,50000,560,50000,0,0,0,0,0.00,0.00,0.00,0.00
2013-10-24 23:00:00,2,49843,0,0.00,2,2,0,2,48432,50000,470,50000,0,0,0,0,0.00,0.00,0.00,0.00
2013-10-24 23:10:00,2,49908,0,0.00,2,2,0,2,49241,50000,227,50000,0,0,0,0,0.00,0.00,0.00,0.00
2013-10-24 23:20:00,2,49932,0,0.00,2,2,0,2,49324,50000,203,50000,0,0,0,0,0.00,0.00,0.00,0.00
2013-10-24 23:30:00,2,49980,0,0.00,2,2,0,2,49800,50000,60,50000,0,0,0,0,0.00,0.00,0.00,0.00
2013-10-24 23:40:00,2,50000,0,0.00,2,2,0,2,50000,50000,0,50000,0,0,0,0,0.00,0.00,0.00,0.00
2013-10-24 23:50:00,2,50000,0,0.00,2,2,0,2,50000,50000,0,50000,0,0,0,0,0.00,0.00,0.00,0.00
